| time (UTC) | temp C | wind direction | speed KPH | gust KPH | rain 1hr cm | rain 24hr cm | rain mn cm | humidity % | barometer mb |
| 20260906235004 | 32 | 162 | 3.2 | 9.7 | 0.00 | 0.00 | 0.00 | 58 | 995.3 |
| 20260906234504 | 32 | 212 | 4.8 | 12.9 | 0.00 | 0.00 | 0.00 | 58 | 995.2 |
| 20260906234003 | 32 | 239 | 8.0 | 12.9 | 0.00 | 0.00 | 0.00 | 56 | 995.2 |
| 20260906233503 | 32 | 257 | 6.4 | 9.7 | 0.00 | 0.00 | 0.00 | 56 | 995.1 |
| 20260906233004 | 32 | 189 | 4.8 | 11.3 | 0.00 | 0.00 | 0.00 | 56 | 995.2 |
| 20260906232504 | 32 | 151 | 6.4 | 12.9 | 0.00 | 0.00 | 0.00 | 56 | 995.1 |
| 20260906232003 | 32 | 195 | 8.0 | 14.5 | 0.00 | 0.00 | 0.00 | 57 | 995.2 |
| 20260906231504 | 32 | 255 | 6.4 | 14.5 | 0.00 | 0.00 | 0.00 | 56 | 995.3 |
| 20260906231003 | 32 | 174 | 8.0 | 19.3 | 0.00 | 0.00 | 0.00 | 56 | 995.6 |
| 20260906230504 | 33 | 250 | 4.8 | 14.5 | 0.00 | 0.00 | 0.00 | 55 | 995.5 |
| 20260906230004 | 33 | 171 | 9.7 | 20.9 | 0.00 | 0.00 | 0.00 | 55 | 995.5 |
| 20260906225004 | 34 | 181 | 9.7 | 19.3 | 0.00 | 0.00 | 0.00 | 52 | 995.3 |
| 20260906224004 | 35 | 196 | 6.4 | 16.1 | 0.00 | 0.00 | 0.00 | 47 | 995.4 |
| 20260906223504 | 35 | 95 | 1.6 | 24.1 | 0.00 | 0.00 | 0.00 | 47 | 995.1 |
| 20260906223004 | 36 | 256 | 3.2 | 24.1 | 0.00 | 0.00 | 0.00 | 45 | 995.3 |
| 20260906222004 | 34 | 224 | 3.2 | 8.0 | 0.00 | 0.00 | 0.00 | 48 | 995.6 |
| 20260906221503 | 34 | 143 | 1.6 | 3.2 | 0.00 | 0.00 | 0.00 | 49 | 995.4 |
| 20260906221004 | 34 | 141 | 3.2 | 8.0 | 0.00 | 0.00 | 0.00 | 48 | 995.5 |
| 20260906220003 | 35 | 274 | 4.8 | 11.3 | 0.00 | 0.00 | 0.00 | 48 | 995.6 |
| 20260906215504 | 35 | 266 | 4.8 | 16.1 | 0.00 | 0.00 | 0.00 | 47 | 995.6 |
| 20260906215004 | 35 | 85 | 4.8 | 16.1 | 0.00 | 0.00 | 0.00 | 47 | 995.5 |
| 20260906214504 | 35 | 232 | 4.8 | 11.3 | 0.00 | 0.00 | 0.00 | 47 | 995.6 |
| 20260906214004 | 36 | 283 | 3.2 | 12.9 | 0.00 | 0.00 | 0.00 | 47 | 995.6 |
| 20260906213004 | 36 | 248 | 3.2 | 11.3 | 0.00 | 0.00 | 0.00 | 47 | 996.1 |
| 20260906212004 | 37 | 210 | 1.6 | 4.8 | 0.00 | 0.00 | 0.00 | 44 | 996.1 |
| 20260906211504 | 36 | 131 | 4.8 | 9.7 | 0.00 | 0.00 | 0.00 | 45 | 995.9 |
| 20260906211004 | 36 | 265 | 3.2 | 8.0 | 0.00 | 0.00 | 0.00 | 45 | 996.1 |
| 20260906210504 | 35 | 165 | 1.6 | 8.0 | 0.00 | 0.00 | 0.00 | 46 | 996.2 |
| 20260906210004 | 35 | 169 | 3.2 | 11.3 | 0.00 | 0.00 | 0.00 | 47 | 996.2 |
| 20260906205504 | 35 | 219 | 1.6 | 8.0 | 0.00 | 0.00 | 0.00 | 48 | 996.3 |
| 20260906204503 | 36 | 218 | 3.2 | 11.3 | 0.00 | 0.00 | 0.00 | 47 | 996.4 |
| 20260906204004 | 36 | 104 | 3.2 | 4.8 | 0.00 | 0.00 | 0.00 | 48 | 996.3 |
| 20260906203503 | 35 | 188 | 3.2 | 8.0 | 0.00 | 0.00 | 0.00 | 49 | 996.4 |
| 20260906203004 | 35 | 110 | 1.6 | 3.2 | 0.00 | 0.00 | 0.00 | 50 | 996.6 |
| 20260906202504 | 34 | 137 | 3.2 | 9.7 | 0.00 | 0.00 | 0.00 | 52 | 996.5 |
| 20260906201003 | 35 | 151 | 3.2 | 8.0 | 0.00 | 0.00 | 0.00 | 51 | 996.7 |
| 20260906200504 | 33 | 171 | 4.8 | 9.7 | 0.00 | 0.00 | 0.00 | 52 | 996.9 |
| 20260906200004 | 34 | 168 | 3.2 | 4.8 | 0.00 | 0.00 | 0.00 | 52 | 996.9 |
| 20260906195503 | 33 | 176 | 3.2 | 4.8 | 0.00 | 0.00 | 0.00 | 52 | 996.9 |
| 20260906195003 | 33 | 74 | 1.6 | 3.2 | 0.00 | 0.00 | 0.00 | 52 | 996.9 |
| 20260906194503 | 34 | 110 | 1.6 | 3.2 | 0.00 | 0.00 | 0.00 | 52 | 997.0 |
| 20260906194004 | 34 | 156 | 3.2 | 8.0 | 0.00 | 0.00 | 0.00 | 51 | 997.1 |
| 20260906193503 | 35 | 170 | 3.2 | 4.8 | 0.00 | 0.00 | 0.00 | 49 | 997.1 |
| 20260906193004 | 35 | 175 | 3.2 | 4.8 | 0.00 | 0.00 | 0.00 | 49 | 997.2 |
| 20260906192504 | 34 | 48 | 1.6 | 3.2 | 0.00 | 0.00 | 0.00 | 50 | 997.1 |
| 20260906191503 | 35 | 245 | 3.2 | 8.0 | 0.00 | 0.00 | 0.00 | 47 | 997.1 |
| 20260906191004 | 35 | 241 | 1.6 | 9.7 | 0.00 | 0.00 | 0.00 | 47 | 997.5 |
| 20260906190504 | 35 | 123 | 1.6 | 4.8 | 0.00 | 0.00 | 0.00 | 48 | 997.2 |
| 20260906190004 | 34 | 158 | 1.6 | 4.8 | 0.00 | 0.00 | 0.00 | 47 | 997.5 |
| 20260906185503 | 35 | 153 | 1.6 | 4.8 | 0.00 | 0.00 | 0.00 | 47 | 997.6 |
| 20260906185004 | 35 | 69 | 1.6 | 4.8 | 0.00 | 0.00 | 0.00 | 48 | 997.4 |
| 20260906184504 | 34 | 91 | 3.2 | 9.7 | 0.00 | 0.00 | 0.00 | 50 | 997.7 |
| 20260906184004 | 34 | 211 | 1.6 | 1.6 | 0.00 | 0.00 | 0.00 | 48 | 997.6 |
| 20260906183504 | 34 | 157 | 1.6 | 4.8 | 0.00 | 0.00 | 0.00 | 49 | 997.4 |
| 20260906183004 | 35 | 101 | 3.2 | 4.8 | 0.00 | 0.00 | 0.00 | 48 | 997.8 |
| 20260906181504 | 33 | 246 | 3.2 | 3.2 | 0.00 | 0.00 | 0.00 | 50 | 998.0 |
| 20260906181004 | 33 | 83 | 0.0 | 1.6 | 0.00 | 0.00 | 0.00 | 53 | 998.1 |
| 20260906180503 | 33 | 91 | 0.0 | 1.6 | 0.00 | 0.00 | 0.00 | 54 | 998.2 |
| 20260906180004 | 32 | 63 | 1.6 | 9.7 | 0.00 | 0.00 | 0.00 | 56 | 998.3 |
| 20260906175503 | 33 | 253 | 3.2 | 8.0 | 0.00 | 0.00 | 0.00 | 55 | 998.3 |
| 20260906175004 | 33 | 110 | 1.6 | 4.8 | 0.00 | 0.00 | 0.00 | 57 | 998.5 |
| 20260906174503 | 32 | 255 | 3.2 | 8.0 | 0.00 | 0.00 | 0.00 | 57 | 998.7 |
| 20260906174004 | 31 | 110 | 3.2 | 4.8 | 0.00 | 0.00 | 0.00 | 61 | 998.7 |
| 20260906173503 | 31 | 138 | 1.6 | 9.7 | 0.00 | 0.00 | 0.00 | 63 | 998.7 |
| 20260906173004 | 31 | 143 | 3.2 | 8.0 | 0.00 | 0.00 | 0.00 | 63 | 998.7 |
| 20260906172503 | 31 | 144 | 3.2 | 8.0 | 0.00 | 0.00 | 0.00 | 63 | 998.9 |
| 20260906172003 | 31 | 264 | 4.8 | 4.8 | 0.00 | 0.00 | 0.00 | 63 | 999.1 |
| 20260906171003 | 32 | 93 | 3.2 | 9.7 | 0.00 | 0.00 | 0.00 | 64 | 999.4 |
| 20260906170503 | 32 | 177 | 3.2 | 9.7 | 0.00 | 0.00 | 0.00 | 63 | 999.4 |
| 20260906170003 | 32 | 134 | 1.6 | 4.8 | 0.00 | 0.00 | 0.00 | 63 | 999.2 |
| 20260906165503 | 31 | 133 | 3.2 | 8.0 | 0.00 | 0.00 | 0.00 | 65 | 999.3 |
| 20260906164504 | 31 | 182 | 3.2 | 8.0 | 0.00 | 0.00 | 0.00 | 65 | 999.3 |
| 20260906164003 | 31 | 234 | 3.2 | 12.9 | 0.00 | 0.00 | 0.00 | 66 | 999.5 |
| 20260906162004 | 30 | 74 | 1.6 | 3.2 | 0.00 | 0.00 | 0.00 | 68 | 999.5 |
| 20260906161504 | 30 | 227 | 3.2 | 3.2 | 0.00 | 0.00 | 0.00 | 68 | 999.4 |
| 20260906161004 | 30 | 51 | 1.6 | 3.2 | 0.00 | 0.00 | 0.00 | 69 | 999.4 |
| 20260906160004 | 30 | 118 | 0.0 | 3.2 | 0.00 | 0.00 | 0.00 | 70 | 999.6 |
| 20260906155503 | 29 | 75 | 0.0 | 1.6 | 0.00 | 0.00 | 0.00 | 71 | 999.3 |
| 20260906155003 | 29 | 83 | 1.6 | 3.2 | 0.00 | 0.00 | 0.00 | 71 | 999.1 |
| 20260906154504 | 29 | 104 | 1.6 | 1.6 | 0.00 | 0.00 | 0.00 | 71 | 999.3 |
| 20260906154003 | 29 | 92 | 1.6 | 1.6 | 0.00 | 0.00 | 0.00 | 70 | 999.0 |
| 20260906153503 | 29 | 140 | 1.6 | 3.2 | 0.00 | 0.00 | 0.00 | 72 | 999.2 |
| 20260906153004 | 29 | 130 | 1.6 | 3.2 | 0.00 | 0.00 | 0.00 | 73 | 999.1 |
| 20260906152504 | 29 | 173 | 3.2 | 3.2 | 0.00 | 0.00 | 0.00 | 73 | 998.9 |
| 20260906152004 | 28 | 116 | 0.0 | 4.8 | 0.00 | 0.00 | 0.00 | 74 | 998.7 |
| 20260906151004 | 28 | 157 | 1.6 | 4.8 | 0.00 | 0.00 | 0.00 | 76 | 998.8 |
| 20260906150504 | 28 | 163 | 1.6 | 8.0 | 0.00 | 0.00 | 0.00 | 76 | 998.9 |
| 20260906150004 | 28 | 165 | 1.6 | 4.8 | 0.00 | 0.00 | 0.00 | 76 | 998.6 |
| 20260906144503 | 28 | 128 | 1.6 | 1.6 | 0.00 | 0.00 | 0.00 | 77 | 998.6 |
| 20260906144003 | 27 | 96 | 1.6 | 3.2 | 0.00 | 0.00 | 0.00 | 78 | 998.7 |
| 20260906143504 | 27 | 150 | 1.6 | 3.2 | 0.00 | 0.00 | 0.00 | 79 | 998.6 |
| 20260906143003 | 27 | 80 | 1.6 | 1.6 | 0.00 | 0.00 | 0.00 | 79 | 998.8 |
| 20260906142503 | 27 | 131 | 1.6 | 1.6 | 0.00 | 0.00 | 0.00 | 80 | 998.5 |
| 20260906142004 | 27 | 131 | 1.6 | 3.2 | 0.00 | 0.00 | 0.00 | 80 | 998.5 |
| 20260906141504 | 27 | 125 | 1.6 | 3.2 | 0.00 | 0.00 | 0.00 | 80 | 998.5 |
| 20260906141003 | 27 | 139 | 1.6 | 3.2 | 0.00 | 0.00 | 0.00 | 81 | 998.4 |
| 20260906140504 | 27 | 161 | 3.2 | 4.8 | 0.00 | 0.00 | 0.00 | 81 | 998.5 |
| 20260906140004 | 27 | 135 | 1.6 | 3.2 | 0.00 | 0.00 | 0.00 | 82 | 998.5 |
| 20260906135504 | 26 | 134 | 1.6 | 3.2 | 0.00 | 0.00 | 0.00 | 82 | 998.6 |
| 20260906135004 | 27 | 135 | 0.0 | 1.6 | 0.00 | 0.00 | 0.00 | 82 | 998.5 |
| 20260906134504 | 26 | 117 | 1.6 | 1.6 | 0.00 | 0.00 | 0.00 | 82 | 998.3 |
| 20260906133503 | 26 | 113 | 1.6 | 3.2 | 0.00 | 0.00 | 0.00 | 83 | 998.3 |
| 20260906133004 | 26 | 150 | 1.6 | 4.8 | 0.00 | 0.00 | 0.00 | 83 | 998.3 |
| 20260906132504 | 26 | 136 | 1.6 | 1.6 | 0.00 | 0.00 | 0.00 | 83 | 998.1 |
| 20260906132003 | 26 | 109 | 1.6 | 1.6 | 0.00 | 0.00 | 0.00 | 83 | 998.0 |
| 20260906131504 | 26 | 126 | 0.0 | 0.0 | 0.00 | 0.00 | 0.00 | 84 | 997.9 |
| 20260906131004 | 26 | 146 | 0.0 | 1.6 | 0.00 | 0.00 | 0.00 | 84 | 998.0 |
| 20260906130504 | 26 | 145 | 1.6 | 1.6 | 0.00 | 0.00 | 0.00 | 84 | 997.8 |
| 20260906130004 | 26 | 144 | 0.0 | 0.0 | 0.00 | 0.00 | 0.00 | 84 | 997.8 |
| 20260906125504 | 26 | 144 | 0.0 | 1.6 | 0.00 | 0.00 | 0.00 | 84 | 998.0 |
| 20260906125004 | 26 | 144 | 1.6 | 1.6 | 0.00 | 0.00 | 0.00 | 84 | 997.8 |
| 20260906124504 | 26 | 144 | 0.0 | 1.6 | 0.00 | 0.00 | 0.00 | 84 | 997.8 |
| 20260906124004 | 25 | 141 | 1.6 | 1.6 | 0.00 | 0.00 | 0.00 | 85 | 997.5 |
| 20260906123003 | 25 | 127 | 0.0 | 0.0 | 0.00 | 0.00 | 0.00 | 85 | 997.4 |
| 20260906122504 | 25 | 127 | 0.0 | 0.0 | 0.00 | 0.00 | 0.00 | 85 | 997.2 |
| 20260906121503 | 25 | 127 | 0.0 | 0.0 | 0.00 | 0.00 | 0.00 | 85 | 997.0 |
| 20260906121003 | 25 | 115 | 0.0 | 0.0 | 0.00 | 0.00 | 0.00 | 85 | 996.9 |
| 20260906120503 | 25 | 115 | 0.0 | 0.0 | 0.00 | 0.00 | 0.00 | 85 | 997.0 |
| 20260906115504 | 25 | 115 | 0.0 | 0.0 | 0.00 | 0.00 | 0.00 | 85 | 996.7 |
| 20260906115004 | 25 | 115 | 0.0 | 0.0 | 0.00 | 0.00 | 0.00 | 85 | 996.7 |
| 20260906114003 | 25 | 135 | 0.0 | 0.0 | 0.00 | 0.00 | 0.00 | 85 | 996.5 |
| 20260906113503 | 25 | 135 | 0.0 | 0.0 | 0.00 | 0.00 | 0.00 | 85 | 996.6 |
| 20260906113003 | 25 | 135 | 0.0 | 0.0 | 0.00 | 0.00 | 0.00 | 84 | 996.4 |
| 20260906111502 | 25 | 135 | 0.0 | 0.0 | 0.00 | 0.00 | 0.00 | 83 | 996.6 |
| 20260906111003 | 25 | 135 | 0.0 | 1.6 | 0.00 | 0.00 | 0.00 | 83 | 996.4 |
| 20260906110503 | 26 | 139 | 0.0 | 1.6 | 0.00 | 0.00 | 0.00 | 82 | 996.3 |
| 20260906110002 | 26 | 144 | 0.0 | 1.6 | 0.00 | 0.00 | 0.00 | 82 | 996.5 |
| 20260906105503 | 26 | 139 | 0.0 | 1.6 | 0.00 | 0.00 | 0.00 | 82 | 996.4 |
| 20260906104502 | 26 | 240 | 1.6 | 3.2 | 0.00 | 0.00 | 0.00 | 81 | 996.5 |
| 20260906104003 | 26 | 207 | 1.6 | 3.2 | 0.00 | 0.00 | 0.00 | 81 | 996.3 |
| 20260906103502 | 26 | 163 | 1.6 | 1.6 | 0.00 | 0.00 | 0.00 | 81 | 996.3 |
| 20260906103002 | 26 | 200 | 1.6 | 4.8 | 0.00 | 0.00 | 0.00 | 81 | 996.3 |
| 20260906102503 | 26 | 243 | 1.6 | 4.8 | 0.00 | 0.00 | 0.00 | 81 | 996.3 |
| 20260906102002 | 26 | 283 | 1.6 | 1.6 | 0.00 | 0.00 | 0.00 | 81 | 996.3 |
| 20260906101503 | 26 | 142 | 1.6 | 3.2 | 0.00 | 0.00 | 0.00 | 81 | 996.1 |
| 20260906100502 | 26 | 160 | 3.2 | 3.2 | 0.00 | 0.00 | 0.00 | 80 | 996.1 |
| 20260906100003 | 26 | 148 | 1.6 | 3.2 | 0.00 | 0.00 | 0.00 | 80 | 996.1 |
| 20260906095503 | 26 | 139 | 1.6 | 3.2 | 0.00 | 0.00 | 0.00 | 80 | 996.0 |
| 20260906095002 | 26 | 150 | 1.6 | 3.2 | 0.00 | 0.00 | 0.00 | 80 | 996.0 |
| 20260906094503 | 26 | 135 | 1.6 | 3.2 | 0.00 | 0.00 | 0.00 | 80 | 996.1 |
| 20260906094003 | 26 | 150 | 1.6 | 3.2 | 0.00 | 0.00 | 0.00 | 80 | 996.2 |
| 20260906093503 | 26 | 140 | 1.6 | 1.6 | 0.00 | 0.00 | 0.00 | 80 | 996.1 |
| 20260906093003 | 26 | 128 | 0.0 | 4.8 | 0.00 | 0.00 | 0.00 | 79 | 996.1 |
| 20260906092502 | 26 | 202 | 1.6 | 4.8 | 0.00 | 0.00 | 0.00 | 79 | 996.0 |
| 20260906091502 | 26 | 130 | 1.6 | 4.8 | 0.00 | 0.00 | 0.00 | 79 | 996.0 |
| 20260906090003 | 26 | 183 | 3.2 | 8.0 | 0.00 | 0.00 | 0.00 | 80 | 996.2 |
| 20260906085502 | 27 | 153 | 3.2 | 4.8 | 0.00 | 0.00 | 0.00 | 80 | 996.1 |
| 20260906085003 | 27 | 257 | 1.6 | 3.2 | 0.00 | 0.00 | 0.00 | 80 | 996.2 |
| 20260906084503 | 27 | 146 | 1.6 | 1.6 | 0.00 | 0.00 | 0.00 | 80 | 996.1 |
| 20260906084003 | 27 | 149 | 0.0 | 1.6 | 0.00 | 0.00 | 0.00 | 80 | 996.2 |
| 20260906083503 | 27 | 148 | 1.6 | 3.2 | 0.00 | 0.00 | 0.00 | 79 | 996.0 |
| 20260906083002 | 27 | 125 | 1.6 | 1.6 | 0.00 | 0.00 | 0.00 | 79 | 996.1 |
| 20260906082503 | 27 | 148 | 3.2 | 8.0 | 0.00 | 0.00 | 0.00 | 79 | 996.2 |
| 20260906082003 | 27 | 193 | 3.2 | 8.0 | 0.00 | 0.00 | 0.00 | 78 | 996.0 |
| 20260906081502 | 27 | 159 | 3.2 | 9.7 | 0.00 | 0.00 | 0.00 | 78 | 996.1 |
| 20260906081003 | 27 | 156 | 3.2 | 9.7 | 0.00 | 0.00 | 0.00 | 78 | 996.1 |
| 20260906080002 | 27 | 196 | 8.0 | 11.3 | 0.00 | 0.00 | 0.00 | 78 | 996.3 |
| 20260906075503 | 27 | 164 | 1.6 | 8.0 | 0.00 | 0.00 | 0.00 | 78 | 996.3 |
| 20260906075002 | 27 | 256 | 3.2 | 9.7 | 0.00 | 0.00 | 0.00 | 78 | 996.5 |
| 20260906074502 | 27 | 226 | 8.0 | 11.3 | 0.00 | 0.00 | 0.00 | 78 | 996.3 |
| 20260906074003 | 27 | 195 | 4.8 | 8.0 | 0.00 | 0.00 | 0.00 | 78 | 996.5 |
| 20260906073502 | 27 | 168 | 4.8 | 9.7 | 0.00 | 0.00 | 0.00 | 78 | 996.3 |
| 20260906073002 | 27 | 188 | 6.4 | 12.9 | 0.00 | 0.00 | 0.00 | 77 | 996.6 |
| 20260906072503 | 27 | 188 | 8.0 | 12.9 | 0.00 | 0.00 | 0.00 | 77 | 996.5 |
| 20260906072002 | 27 | 199 | 4.8 | 9.7 | 0.00 | 0.00 | 0.00 | 77 | 996.7 |
| 20260906071502 | 27 | 159 | 3.2 | 8.0 | 0.00 | 0.00 | 0.00 | 77 | 996.7 |
| 20260906071003 | 28 | 167 | 3.2 | 9.7 | 0.00 | 0.00 | 0.00 | 77 | 996.7 |
| 20260906070003 | 28 | 205 | 4.8 | 12.9 | 0.00 | 0.00 | 0.00 | 76 | 996.7 |
| 20260906065502 | 28 | 273 | 6.4 | 12.9 | 0.00 | 0.00 | 0.00 | 76 | 996.8 |
| 20260906065003 | 28 | 160 | 3.2 | 8.0 | 0.00 | 0.00 | 0.00 | 76 | 997.0 |
| 20260906064503 | 28 | 209 | 3.2 | 4.8 | 0.00 | 0.00 | 0.00 | 76 | 997.0 |
| 20260906063003 | 28 | 184 | 3.2 | 12.9 | 0.00 | 0.00 | 0.00 | 75 | 997.0 |
| 20260906062502 | 28 | 164 | 9.7 | 14.5 | 0.00 | 0.00 | 0.00 | 75 | 996.8 |
| 20260906061503 | 28 | 169 | 6.4 | 12.9 | 0.00 | 0.00 | 0.00 | 75 | 996.9 |
| 20260906061002 | 28 | 171 | 8.0 | 12.9 | 0.00 | 0.00 | 0.00 | 75 | 997.1 |
| 20260906060503 | 28 | 204 | 3.2 | 9.7 | 0.00 | 0.00 | 0.00 | 74 | 997.2 |
| 20260906060002 | 28 | 195 | 4.8 | 8.0 | 0.00 | 0.00 | 0.00 | 74 | 997.1 |
| 20260906055503 | 28 | 223 | 4.8 | 8.0 | 0.00 | 0.00 | 0.00 | 74 | 997.2 |
| 20260906055003 | 28 | 164 | 4.8 | 4.8 | 0.00 | 0.00 | 0.00 | 74 | 997.1 |
| 20260906054502 | 28 | 215 | 3.2 | 9.7 | 0.00 | 0.00 | 0.00 | 74 | 997.4 |
| 20260906054002 | 28 | 174 | 3.2 | 8.0 | 0.00 | 0.00 | 0.00 | 74 | 997.0 |
| 20260906053503 | 28 | 165 | 4.8 | 8.0 | 0.00 | 0.00 | 0.00 | 74 | 997.1 |
| 20260906053002 | 28 | 149 | 4.8 | 8.0 | 0.00 | 0.00 | 0.00 | 74 | 997.2 |
| 20260906052503 | 28 | 140 | 3.2 | 8.0 | 0.00 | 0.00 | 0.00 | 74 | 997.1 |
| 20260906052002 | 28 | 162 | 3.2 | 4.8 | 0.00 | 0.00 | 0.00 | 74 | 997.1 |
| 20260906051503 | 28 | 152 | 1.6 | 4.8 | 0.00 | 0.00 | 0.00 | 74 | 997.3 |
| 20260906051003 | 28 | 137 | 1.6 | 3.2 | 0.00 | 0.00 | 0.00 | 74 | 997.1 |
| 20260906050002 | 28 | 149 | 1.6 | 4.8 | 0.00 | 0.00 | 0.00 | 73 | 997.5 |
| 20260906045503 | 28 | 105 | 1.6 | 4.8 | 0.00 | 0.00 | 0.00 | 73 | 997.3 |
| 20260906045003 | 28 | 172 | 3.2 | 4.8 | 0.00 | 0.00 | 0.00 | 73 | 997.4 |
| 20260906044502 | 28 | 139 | 3.2 | 8.0 | 0.00 | 0.00 | 0.00 | 73 | 997.3 |
| 20260906044003 | 28 | 121 | 1.6 | 8.0 | 0.00 | 0.00 | 0.00 | 73 | 997.3 |
| 20260906043003 | 28 | 137 | 3.2 | 4.8 | 0.00 | 0.00 | 0.00 | 72 | 997.2 |
| 20260906042502 | 28 | 164 | 3.2 | 8.0 | 0.00 | 0.00 | 0.00 | 72 | 997.2 |
| 20260906042003 | 28 | 139 | 1.6 | 8.0 | 0.00 | 0.00 | 0.00 | 71 | 997.2 |
| 20260906041503 | 28 | 179 | 3.2 | 8.0 | 0.00 | 0.00 | 0.00 | 71 | 997.2 |
| 20260906041002 | 28 | 174 | 3.2 | 11.3 | 0.00 | 0.00 | 0.00 | 71 | 997.0 |
| 20260906040503 | 28 | 186 | 4.8 | 8.0 | 0.00 | 0.00 | 0.00 | 70 | 997.1 |
| 20260906040002 | 28 | 106 | 3.2 | 4.8 | 0.00 | 0.00 | 0.00 | 70 | 997.2 |
| 20260906035503 | 29 | 85 | 3.2 | 8.0 | 0.00 | 0.00 | 0.00 | 69 | 997.2 |
| 20260906035003 | 29 | 137 | 3.2 | 11.3 | 0.00 | 0.00 | 0.00 | 69 | 997.1 |
| 20260906034503 | 29 | 148 | 3.2 | 11.3 | 0.00 | 0.00 | 0.00 | 68 | 997.2 |
| 20260906034003 | 29 | 184 | 4.8 | 11.3 | 0.00 | 0.00 | 0.00 | 68 | 997.2 |
| 20260906033003 | 29 | 149 | 3.2 | 9.7 | 0.00 | 0.00 | 0.00 | 67 | 997.2 |
| 20260906032502 | 29 | 154 | 4.8 | 9.7 | 0.00 | 0.00 | 0.00 | 67 | 997.0 |
| 20260906032003 | 29 | 148 | 1.6 | 8.0 | 0.00 | 0.00 | 0.00 | 66 | 997.0 |
| 20260906031502 | 30 | 70 | 3.2 | 4.8 | 0.00 | 0.00 | 0.00 | 65 | 996.8 |
| 20260906031003 | 30 | 152 | 3.2 | 9.7 | 0.00 | 0.00 | 0.00 | 65 | 996.8 |
| 20260906030502 | 30 | 153 | 4.8 | 9.7 | 0.00 | 0.00 | 0.00 | 65 | 996.9 |
| 20260906030003 | 30 | 26 | 4.8 | 9.7 | 0.00 | 0.00 | 0.00 | 64 | 996.8 |
| 20260906025002 | 30 | 93 | 3.2 | 8.0 | 0.00 | 0.00 | 0.00 | 63 | 996.5 |
| 20260906024503 | 30 | 34 | 4.8 | 14.5 | 0.00 | 0.00 | 0.00 | 62 | 996.4 |
| 20260906024002 | 30 | 62 | 6.4 | 14.5 | 0.00 | 0.00 | 0.00 | 61 | 996.4 |
| 20260906023003 | 30 | 115 | 3.2 | 8.0 | 0.00 | 0.00 | 0.00 | 60 | 996.2 |
| 20260906022503 | 30 | 87 | 3.2 | 8.0 | 0.00 | 0.00 | 0.00 | 60 | 996.0 |
| 20260906022003 | 31 | 125 | 1.6 | 16.1 | 0.00 | 0.00 | 0.00 | 60 | 995.9 |
| 20260906021503 | 31 | 129 | 3.2 | 8.0 | 0.00 | 0.00 | 0.00 | 60 | 995.8 |
| 20260906021003 | 31 | 88 | 3.2 | 8.0 | 0.00 | 0.00 | 0.00 | 59 | 995.6 |
| 20260906020003 | 31 | 96 | 3.2 | 8.0 | 0.00 | 0.00 | 0.00 | 59 | 995.7 |
| 20260906015503 | 31 | 89 | 3.2 | 11.3 | 0.00 | 0.00 | 0.00 | 58 | 995.5 |
| 20260906015004 | 31 | 184 | 6.4 | 11.3 | 0.00 | 0.00 | 0.00 | 58 | 995.5 |
| 20260906014504 | 31 | 174 | 4.8 | 9.7 | 0.00 | 0.00 | 0.00 | 57 | 995.5 |
| 20260906014003 | 32 | 122 | 3.2 | 9.7 | 0.00 | 0.00 | 0.00 | 57 | 995.2 |
| 20260906013503 | 32 | 130 | 4.8 | 9.7 | 0.00 | 0.00 | 0.00 | 56 | 995.1 |
| 20260906013003 | 32 | 105 | 4.8 | 8.0 | 0.00 | 0.00 | 0.00 | 56 | 995.0 |
| 20260906012003 | 32 | 109 | 3.2 | 12.9 | 0.00 | 0.00 | 0.00 | 55 | 994.9 |
| 20260906011503 | 32 | 122 | 4.8 | 9.7 | 0.00 | 0.00 | 0.00 | 56 | 995.0 |
| 20260906011003 | 32 | 168 | 3.2 | 9.7 | 0.00 | 0.00 | 0.00 | 55 | 995.0 |
| 20260906010503 | 32 | 170 | 8.0 | 11.3 | 0.00 | 0.00 | 0.00 | 55 | 995.0 |
| 20260906010003 | 32 | 107 | 4.8 | 9.7 | 0.00 | 0.00 | 0.00 | 54 | 995.0 |
| 20260906005003 | 33 | 117 | 3.2 | 8.0 | 0.00 | 0.00 | 0.00 | 54 | 994.9 |
| 20260906004502 | 33 | 67 | 4.8 | 11.3 | 0.00 | 0.00 | 0.00 | 53 | 995.0 |
| 20260906004003 | 33 | 67 | 4.8 | 11.3 | 0.00 | 0.00 | 0.00 | 53 | 995.2 |
| 20260906003503 | 33 | 184 | 4.8 | 9.7 | 0.00 | 0.00 | 0.00 | 52 | 994.9 |
| 20260906003003 | 33 | 152 | 3.2 | 14.5 | 0.00 | 0.00 | 0.00 | 51 | 994.9 |
| 20260906002002 | 35 | 174 | 3.2 | 9.7 | 0.00 | 0.00 | 0.00 | 46 | 994.9 |
| 20260906001503 | 35 | 130 | 3.2 | 3.2 | 0.00 | 0.00 | 0.00 | 44 | 995.1 |
| 20260906001003 | 35 | 156 | 1.6 | 4.8 | 0.00 | 0.00 | 0.00 | 44 | 994.7 |
| 20260905235503 | 35 | 126 | 3.2 | 8.0 | 0.00 | 0.00 | 0.00 | 45 | 994.7 |